Retour au catalogue

CZ-6A DEB

ActifPO
NORAD 61817·DEBRIS·🇨🇳 China

Lancé Aug 6, 2024 depuis Taiyuan Satellite Launch Center

Loading…

Prochains Passages (prochaines 24 heures)

TLE

FraisSource: Space-Track

Époque: Sep 14, 2026, 08:43 UTC

1 61817U 24140ACH 26257.36385210  .00001810  00000-0  54097-3 0  9992
2 61817  88.7256 236.0130 0050881  48.0499 312.5023 14.41811899106506

Suivez CZ-6A DEB en temps réel avec AllMySat

Download on the App Store